Date String (YYYY-MM-DD hh:mm:ss) UTC,Instrument flags,Ambient pressure (hPa),Sample flow (lpm),Bypass flow (lpm),Sample temperature (°C),Ambient temperature (°C),ASC tube jacket temperature (°C),LED temperature (°C),Box temperature (°C),Sample RH (%),Span deviation,Mass concentration (μg/m³),Mass concentration (μg/m³),Mass concentration (μg/m³)
DateTimeUTC,F1_M11,P_M11,Q1_M11,Q2_M11,T1_M11,T2_M11,T3_M11,T4_M11,T5_M11,U1_M11,ZSPAN_M11,X0_M11,X2_M11,X1_M11
2023-05-09 01:00:00,,0827.4,4.99,0.00,29.4,27.9,00.0,37.8,31.1,14.1,0000.0,0007.29,0003.08,0001.85
2023-05-09 01:01:00,,0827.4,4.99,0.00,29.4,27.9,00.0,37.8,31.2,13.9,0000.0,0007.40,0003.00,0001.82
2023-05-09 01:02:00,,0827.4,5.00,0.00,29.5,28.0,00.0,37.8,31.2,13.8,0000.0,0007.43,0003.02,0001.80
2023-05-09 01:03:00,,0827.4,5.00,0.00,29.5,28.1,00.0,37.8,31.2,13.7,0000.0,0007.51,0003.05,0001.80
2023-05-09 01:04:00,,0827.4,5.01,0.00,29.5,28.1,00.0,37.9,31.2,13.7,0000.0,0007.39,0003.00,0001.81
2023-05-09 01:05:00,,0827.4,4.98,0.00,29.5,28.2,00.0,37.9,31.3,13.7,0000.0,0007.66,0003.01,0001.81
2023-05-09 01:06:00,,0827.4,5.00,0.00,29.6,28.2,00.0,37.9,31.3,13.6,0000.0,0007.73,0002.98,0001.81
2023-05-09 01:07:00,,0827.4,5.00,0.00,29.6,28.2,00.0,37.9,31.3,13.7,0000.0,0007.67,0002.95,0001.80
2023-05-09 01:08:00,,0827.4,4.98,0.00,29.6,28.3,00.0,37.9,31.3,13.7,0000.0,0007.69,0002.97,0001.80
2023-05-09 01:09:00,,0827.4,5.01,0.00,29.6,28.3,00.0,37.9,31.4,13.6,0000.0,0007.63,0002.92,0001.79
2023-05-09 01:10:00,,0827.5,5.01,0.00,29.7,28.3,00.0,38.0,31.4,13.6,0000.0,0007.62,0002.90,0001.78
2023-05-09 01:11:00,,0827.7,4.99,0.00,29.7,28.4,00.0,38.0,31.4,13.6,0000.0,0007.04,0002.82,0001.75
2023-05-09 01:12:00,,0827.4,4.99,0.00,29.7,28.4,00.0,38.0,31.4,13.5,0000.0,0006.75,0002.82,0001.75
2023-05-09 01:13:00,,0827.5,5.01,0.00,29.7,28.3,00.0,38.0,31.4,13.5,0000.0,0006.70,0002.77,0001.75
2023-05-09 01:14:00,,0827.5,4.98,0.00,29.7,26.6,00.0,38.0,31.2,13.6,0000.0,0006.62,0002.76,0001.75
2023-05-09 01:15:00,,0827.5,5.00,0.00,29.6,25.5,00.0,37.9,31.0,13.7,0000.0,0007.24,0002.73,0001.73
2023-05-09 01:16:00,,0827.5,5.02,0.00,29.5,25.5,00.0,37.8,30.8,13.9,0000.0,0006.79,0002.71,0001.72
2023-05-09 01:17:00,,0827.5,5.00,0.00,29.4,25.7,00.0,37.8,30.8,14.2,0000.0,0007.16,0002.71,0001.72
2023-05-09 01:18:00,,0827.5,4.98,0.00,29.4,26.1,00.0,37.8,30.9,14.4,0000.0,0008.13,0002.79,0001.73
2023-05-09 01:19:00,,0827.6,4.99,0.00,29.4,26.4,00.0,37.8,30.9,14.3,0000.0,0008.81,0002.80,0001.74
2023-05-09 01:20:00,,0827.6,5.00,0.00,29.4,26.7,00.0,37.8,31.0,14.3,0000.0,0009.28,0002.77,0001.73
2023-05-09 01:21:00,,0827.6,5.00,0.00,29.4,27.0,00.0,37.8,31.0,14.4,0000.0,0009.25,0002.74,0001.72
2023-05-09 01:22:00,,0827.7,5.01,0.00,29.4,27.2,00.0,37.8,31.0,14.4,0000.0,0009.34,0002.78,0001.72
2023-05-09 01:23:00,,0827.7,5.00,0.00,29.4,27.3,00.0,37.8,31.0,14.5,0000.0,0009.59,0002.82,0001.74
2023-05-09 01:24:00,,0827.7,5.00,0.00,29.4,27.5,00.0,37.8,31.0,14.6,0000.0,0009.94,0002.81,0001.74
2023-05-09 01:25:00,,0827.7,5.00,0.00,29.4,27.6,00.0,37.8,31.1,14.7,0000.0,0010.38,0002.82,0001.75
2023-05-09 01:26:00,,0827.7,5.00,0.00,29.4,27.7,00.0,37.8,31.1,14.7,0000.0,0010.36,0002.85,0001.76
2023-05-09 01:27:00,,0827.7,5.00,0.00,29.4,27.7,00.0,37.8,31.1,14.7,0000.0,0010.49,0002.92,0001.77
2023-05-09 01:28:00,,0827.7,5.00,0.00,29.4,27.8,00.0,37.8,31.1,14.7,0000.0,0010.26,0002.95,0001.76
2023-05-09 01:29:00,,0827.7,4.99,0.00,29.4,27.9,00.0,37.8,31.1,14.8,0000.0,0009.96,0002.88,0001.75
2023-05-09 01:30:00,,0827.8,5.01,0.00,29.4,27.9,00.0,37.8,31.1,14.8,0000.0,0009.31,0002.80,0001.73
2023-05-09 01:31:00,,0827.8,4.99,0.00,29.5,27.9,00.0,37.8,31.1,14.8,0000.0,0008.32,0002.74,0001.73
2023-05-09 01:32:00,,0827.8,5.00,0.00,29.5,28.0,00.0,37.8,31.2,14.8,0000.0,0008.32,0002.78,0001.74
2023-05-09 01:33:00,,0827.8,5.01,0.00,29.5,28.0,00.0,37.8,31.2,14.9,0000.0,0008.52,0002.81,0001.76
2023-05-09 01:34:00,,0827.8,5.00,0.00,29.5,28.0,00.0,37.9,31.2,14.9,0000.0,0008.55,0002.80,0001.76
2023-05-09 01:35:00,,0827.8,5.00,0.00,29.5,28.0,00.0,37.9,31.2,14.9,0000.0,0008.26,0002.88,0001.76
2023-05-09 01:36:00,,0827.8,4.98,0.00,29.5,28.1,00.0,37.9,31.2,14.8,0000.0,0008.20,0002.87,0001.75
2023-05-09 01:37:00,,0827.8,5.01,0.00,29.5,28.1,00.0,37.9,31.2,14.6,0000.0,0007.88,0002.83,0001.75
2023-05-09 01:38:00,,0827.8,5.00,0.00,29.5,28.1,00.0,37.9,31.2,14.7,0000.0,0007.64,0002.80,0001.75
2023-05-09 01:39:00,,0827.8,5.01,0.00,29.5,28.1,00.0,37.9,31.2,14.8,0000.0,0007.50,0002.70,0001.75
2023-05-09 01:40:00,,0827.8,5.00,0.00,29.5,28.1,00.0,37.9,31.2,14.8,0000.0,0006.98,0002.75,0001.76
2023-05-09 01:41:00,,0827.8,4.99,0.00,29.5,28.1,00.0,37.9,31.3,14.7,0000.0,0006.87,0002.77,0001.77
2023-05-09 01:42:00,,0827.8,5.00,0.00,29.6,28.1,00.0,37.9,31.3,14.7,0000.0,0006.86,0002.82,0001.79
2023-05-09 01:43:00,,0827.8,5.01,0.00,29.6,28.1,00.0,37.9,31.3,14.7,0000.0,0006.70,0002.79,0001.80
2023-05-09 01:44:00,,0827.8,5.01,0.00,29.6,28.1,00.0,37.9,31.3,14.8,0000.0,0006.34,0002.77,0001.78
2023-05-09 01:45:00,,0827.7,4.98,0.00,29.6,28.1,00.0,38.0,31.2,14.6,0000.0,0005.91,0002.76,0001.78
2023-05-09 01:46:00,,0827.8,5.00,0.00,29.6,28.1,00.0,38.0,31.2,14.6,0000.0,0005.79,0002.77,0001.82
2023-05-09 01:47:00,,0827.7,4.99,0.00,29.6,28.1,00.0,38.0,31.2,14.7,0000.0,0005.69,0002.85,0001.84
2023-05-09 01:48:00,,0827.8,5.00,0.00,29.6,28.1,00.0,38.0,31.2,14.6,0000.0,0005.84,0002.94,0001.86
2023-05-09 01:49:00,,0827.8,5.00,0.00,29.6,28.1,00.0,38.0,31.2,14.6,0000.0,0006.74,0003.02,0001.88
2023-05-09 01:50:00,,0827.8,5.01,0.00,29.5,28.0,00.0,38.0,31.2,14.7,0000.0,0007.33,0003.09,0001.91
2023-05-09 01:51:00,,0827.8,5.01,0.00,29.6,28.1,00.0,38.0,31.2,14.7,0000.0,0007.33,0003.09,0001.92
2023-05-09 01:52:00,,0827.8,4.99,0.00,29.5,28.0,00.0,38.0,31.2,14.8,0000.0,0007.46,0003.12,0001.94
2023-05-09 01:53:00,,0827.8,5.01,0.00,29.5,28.0,00.0,38.0,31.2,14.7,0000.0,0007.58,0003.14,0001.94
2023-05-09 01:54:00,,0827.8,5.01,0.00,29.6,28.0,00.0,38.0,31.2,14.7,0000.0,0007.65,0003.14,0001.94
2023-05-09 01:55:00,,0827.8,4.99,0.00,29.6,28.0,00.0,38.0,31.2,14.8,0000.0,0007.94,0003.18,0001.96
2023-05-09 01:56:00,,0827.7,4.98,0.00,29.6,28.0,00.0,38.0,31.2,14.8,0000.0,0007.92,0003.18,0001.97
2023-05-09 01:57:00,,0827.7,5.00,0.00,29.5,28.0,00.0,38.0,31.2,14.9,0000.0,0007.82,0003.16,0001.95
2023-05-09 01:58:00,,0827.7,5.01,0.00,29.5,27.9,00.0,38.0,31.2,14.7,0000.0,0007.77,0003.13,0001.93
2023-05-09 01:59:00,,0827.7,5.01,0.00,29.5,27.9,00.0,38.0,31.2,14.6,0000.0,0008.11,0003.11,0001.93
